[[{"header":{"parameterUnit":"m.s-1","parameterCategory":1,"la1":30.2991,"la2":30.254,"lo1":-89.0895,"lo2":-89.0444,"dy":0.0017,"dx":0.0017,"nx":28,"ny":28,"refTime":"2024-09-28T21:00:00:Z","depth":0,"parameterNumber":2,"parameterNumberName":"U-component_of_WINDS"},"data":[0,0,0,0,0,0,0,0,0,0,0,0,0,0,0,0,0,0,0,0,0,0,0,0,0,0,0,0,0,0,0,0,0,0,0,0,0,0,0,0,0,0,0,0,0,0,0,0,0,0,0,0,0,0,0,0,0,0,2.3124,2.3125,0,2.3161,2.3161,2.3161,2.3176,2.3176,2.3176,2.3175,2.3214,2.3216,2.3217,0,0,0,0,0,0,0,0,0,0,0,0,0,2.3072,2.3073,2.3124,2.3125,2.3125,2.316,2.3161,2.3161,2.3176,2.3176,2.3175,2.3175,2.3214,2.3215,2.3217,0,0,0,0,0,0,0,0,0,0,0,0,0,2.31,2.3073,2.3124,2.3136,2.3138,2.316,2.3161,2.3162,2.3176,2.3176,2.3175,2.3175,2.3214,2.3215,2.3217,2.323,0,0,2.3222,2.3223,0,0,0,0,0,0,0,0,2.3098,2.3102,2.3134,2.3136,2.3137,2.3163,2.3157,2.3185,2.3176,2.3161,2.3175,2.3175,2.3198,2.3201,2.3208,2.3232,2.3234,2.3222,2.3223,2.3224,2.3224,0,0,0,0,0,0,0,2.3096,2.31,2.3139,2.3135,2.3137,2.3142,2.3146,2.3162,2.318,2.3163,2.3164,2.3168,2.3199,2.3206,2.3209,2.3234,2.3222,2.3224,2.3225,2.3225,2.3276,2.3276,0,0,0,0,0,0,2.3092,2.3099,2.3137,2.314,2.3117,2.3143,2.3147,2.3155,2.318,2.3183,2.3168,2.3168,2.3203,2.3207,2.321,2.323,2.3224,2.3226,2.3227,2.3276,2.3276,2.3276,0,0,0,0,0,0,2.3091,2.3095,2.3136,2.312,2.3125,2.3144,2.3153,2.3156,2.3164,2.3184,2.3187,2.3172,2.3203,2.3208,2.3226,2.3231,2.3226,2.3228,2.3275,2.3276,2.3276,2.3267,0,0,0,0,0,0,2.3089,2.3095,2.3098,2.312,2.3126,2.3149,2.3153,2.3157,2.3166,2.3167,2.3189,2.3192,2.3204,2.3223,2.3228,2.3233,2.3229,2.3275,2.3276,2.3276,2.3267,2.3267,2.3268,0,0,0,0,0,2.3087,2.3094,2.3099,2.3103,2.3131,2.315,2.3153,2.3166,2.3166,2.3172,2.3185,2.3191,2.323,2.3225,2.323,2.3236,2.3275,2.3275,2.3276,2.3267,2.3267,2.3268,0,0,0,0,0,0,2.3073,2.3097,2.3102,2.3116,2.3131,2.3152,2.3158,2.3165,2.3181,2.3181,2.3197,2.3202,2.3219,2.323,2.3224,2.3253,2.3253,2.3255,2.3245,2.3245,2.3245,2.3242,2.3231,0,0,0,0,0,2.3071,2.3083,2.3104,2.3114,2.3122,2.3139,2.3147,2.3156,2.3172,2.3179,2.3194,2.321,2.3227,2.3237,2.3252,2.327,2.3276,2.3277,2.3277,2.3277,2.3278,2.3291,2.3293,2.3279,2.3279,2.3279,0,0,2.3068,2.3083,2.3089,2.3112,2.3124,2.3138,2.3144,2.3157,2.3168,2.3181,2.3199,2.3211,2.3231,2.325,2.3258,2.3259,2.3284,2.3278,2.3278,2.3279,2.3292,2.3293,2.3295,2.3279,2.3279,2.3279,0,0,2.3069,2.308,2.3091,2.3104,2.3124,2.3136,2.3139,2.316,2.3169,2.3187,2.3198,2.3213,2.3239,2.3254,2.3265,2.3277,2.3284,2.3282,2.3282,2.3295,2.3296,2.3297,2.3302,2.3304,2.3283,2.3283,2.3283,0,2.3062,2.3082,2.3096,2.311,2.3121,2.3134,2.3147,2.3159,2.3183,2.3191,2.3192,2.3228,2.3242,2.3266,2.3269,2.3277,2.3283,2.3278,2.3294,2.3296,2.3297,2.3302,2.3304,2.3283,2.3283,2.3283,2.3283,0,2.3074,2.3088,2.3095,2.3118,2.313,2.3143,2.3161,2.3172,2.3181,2.3194,2.3215,2.3233,2.3254,2.3261,2.3269,2.3287,2.3287,2.3291,2.3291,2.3297,2.3303,2.3305,2.3282,2.3282,2.3282,2.3282,0,0,2.3063,2.3096,2.3099,2.3111,2.3135,2.3147,2.3163,2.3184,2.3194,2.3211,2.3226,2.3251,2.3255,2.3268,2.3279,2.329,2.3301,2.3293,2.3294,2.3295,2.3324,2.3321,2.3323,2.3307,2.3307,2.3308,2.3323,0,2.3067,2.3093,2.3109,2.313,2.3145,2.316,2.3174,2.3192,2.3206,2.3222,2.3238,2.3256,2.326,2.3268,2.328,2.3297,2.3307,2.3296,2.3322,2.3323,2.3316,2.3325,2.3321,2.3334,2.3325,2.3325,2.3325,0,2.3074,2.3092,2.3114,2.3141,2.3148,2.3159,2.3182,2.3197,2.3219,2.3228,2.3245,2.3257,2.3276,2.3277,2.3306,2.3298,2.3311,2.3321,2.3322,2.3324,2.3323,2.3328,2.3338,2.334,2.3329,2.3329,2.3328,0,2.3065,2.3095,2.3113,2.3123,2.3153,2.3162,2.3175,2.3197,2.321,2.3231,2.324,2.3263,2.3275,2.3294,2.3313,2.3311,2.3341,2.3342,2.335,2.335,2.3354,2.3354,2.3367,2.3363,2.3363,2.3363,2.3363,0,2.3068,2.3081,2.311,2.312,2.3137,2.3157,2.3174,2.3189,2.3209,2.3225,2.3241,2.3256,2.328,2.3299,2.3314,2.3337,2.3343,2.3353,2.3356,2.3351,2.3349,2.3358,2.3357,2.3363,2.3363,2.3363,2.3363,0,2.3059,2.3078,2.3099,2.3128,2.3136,2.3147,2.3172,2.3185,2.3201,2.3222,2.3228,2.3253,2.3277,2.3299,2.333,2.334,2.3364,2.3369,2.3356,2.3358,2.3366,2.3365,2.3384,2.3388,2.3382,2.3382,2.3382,0,2.3059,2.307,2.31,2.3112,2.3125,2.3143,2.3157,2.3179,2.3193,2.3222,2.3232,2.3257,2.3277,2.3315,2.3338,2.3363,2.3368,2.3374,2.3372,2.3367,2.3369,2.3368,2.3371,2.3373,2.3373,2.3373,2.3373,0,2.3057,2.3067,2.3085,2.3109,2.3125,2.3144,2.3164,2.3174,2.32,2.3215,2.324,2.3256,2.329,2.3315,2.3343,2.336,2.3371,2.3374,2.3377,2.3371,2.3363,2.3369,2.3356,2.3373,2.3373,2.3373,2.3373,2.3373,2.3053,2.3064,2.3088,2.311,2.3127,2.3147,2.3161,2.318,2.3201,2.3229,2.3241,2.3267,2.3293,2.3333,2.335,2.3371,2.3374,2.3378,2.3379,2.338,2.338,2.3361,2.3377,2.3377,2.3377,2.3377,2.3377,0,2.3052,2.3069,2.3089,2.3117,2.3135,2.3145,2.3169,2.3184,2.3206,2.3229,2.325,2.328,2.3306,2.3333,2.3361,2.3374,2.338,2.338,2.3379,2.3383,2.3375,2.337,2.3375,2.3375,2.3375,2.3375,2.3375,2.3375,2.3053,2.3074,2.3088,2.3119,2.3137,2.3161,2.3175,2.3194,2.3213,2.3246,2.3267,2.3284,2.331,2.3341,2.3367,2.3374,2.3384,2.3383,2.3392,2.3384,2.3383,2.3383,2.3378,2.3385,2.3385,2.3398,2.3398,2.3398]},{"header":{"parameterUnit":"m.s-1","parameterCategory":1,"la1":30.2991,"la2":30.254,"lo1":-89.0895,"lo2":-89.0444,"dy":0.0017,"dx":0.0017,"nx":28,"ny":28,"refTime":"2024-09-28T21:00:00:Z","depth":0,"parameterNumber":3,"parameterNumberName":"V-component_of_WINDS"},"data":[0,0,0,0,0,0,0,0,0,0,0,0,0,0,0,0,0,0,0,0,0,0,0,0,0,0,0,0,0,0,0,0,0,0,0,0,0,0,0,0,0,0,0,0,0,0,0,0,0,0,0,0,0,0,0,0,0,0,2.9015,2.9017,0,2.92,2.9202,2.9205,2.9285,2.9285,2.9285,2.9285,2.9471,2.9476,2.9481,0,0,0,0,0,0,0,0,0,0,0,0,0,2.8728,2.8733,2.9015,2.9017,2.902,2.92,2.9203,2.9205,2.9285,2.9285,2.9285,2.9284,2.9469,2.9476,2.9482,0,0,0,0,0,0,0,0,0,0,0,0,0,2.8877,2.8734,2.9015,2.9082,2.909,2.9199,2.9203,2.9206,2.9286,2.9285,2.9285,2.9284,2.9467,2.9475,2.9483,2.9539,0,0,2.9507,2.951,0,0,0,0,0,0,0,0,2.8868,2.8887,2.907,2.9077,2.9086,2.9219,2.917,2.9317,2.9286,2.9211,2.9285,2.9284,2.9388,2.9402,2.9437,2.9548,2.9556,2.9507,2.9512,2.9515,2.9518,0,0,0,0,0,0,0,2.8858,2.888,2.9088,2.9072,2.9082,2.9101,2.9122,2.9198,2.9299,2.9217,2.9224,2.9245,2.9392,2.943,2.9442,2.9559,2.9507,2.9514,2.9519,2.9522,2.9724,2.9725,0,0,0,0,0,0,2.8837,2.8871,2.9082,2.9094,2.8974,2.9107,2.913,2.9177,2.9299,2.9317,2.9245,2.9248,2.9417,2.9433,2.9449,2.9523,2.9515,2.9523,2.9527,2.9723,2.9724,2.9725,0,0,0,0,0,0,2.883,2.8855,2.9075,2.8984,2.9014,2.9112,2.9164,2.9181,2.9219,2.9319,2.9337,2.9265,2.9417,2.9438,2.9516,2.9531,2.9526,2.9533,2.9723,2.9724,2.9724,2.9672,0,0,0,0,0,0,2.8822,2.8852,2.8876,2.8984,2.9018,2.914,2.9165,2.9185,2.9232,2.9238,2.9343,2.936,2.9418,2.9504,2.9524,2.9542,2.954,2.9722,2.9723,2.9724,2.9672,2.9671,2.9669,0,0,0,0,0,2.8811,2.8853,2.8876,2.8901,2.9049,2.914,2.916,2.9227,2.9233,2.9257,2.9321,2.9357,2.9526,2.9511,2.9535,2.9555,2.9721,2.9723,2.9724,2.9673,2.9671,2.9669,0,0,0,0,0,0,2.8743,2.8868,2.8896,2.8974,2.9046,2.9154,2.9186,2.9222,2.9293,2.9296,2.9375,2.9398,2.9469,2.952,2.9501,2.9615,2.9626,2.9633,2.958,2.9579,2.9577,2.9563,2.9546,0,0,0,0,0,2.8736,2.8801,2.8907,2.8965,2.9,2.9086,2.9129,2.9174,2.9252,2.9282,2.9353,2.9426,2.9495,2.954,2.9609,2.968,2.9704,2.9705,2.9703,2.9701,2.9706,2.9747,2.9748,2.973,2.973,2.973,0,0,2.8724,2.8801,2.8837,2.8953,2.9015,2.9079,2.9112,2.9178,2.9226,2.9292,2.9371,2.9424,2.9511,2.9585,2.9622,2.963,2.9716,2.9703,2.9701,2.9707,2.9748,2.975,2.9751,2.9731,2.9731,2.973,0,0,2.8736,2.88,2.8856,2.8917,2.901,2.9067,2.908,2.9183,2.9221,2.9301,2.9352,2.9409,2.9528,2.9588,2.9633,2.9666,2.9701,2.9686,2.9678,2.9716,2.9718,2.972,2.9731,2.9735,2.969,2.969,2.969,0,2.8709,2.8809,2.888,2.8944,2.8993,2.9056,2.9113,2.9168,2.9278,2.931,2.9318,2.9468,2.9531,2.962,2.9628,2.9663,2.968,2.9675,2.9712,2.9715,2.9717,2.9729,2.9733,2.9688,2.9688,2.9688,2.9689,0,2.8771,2.8839,2.8873,2.8979,2.9032,2.9091,2.9171,2.9215,2.9256,2.9311,2.9391,2.9469,2.9555,2.958,2.9619,2.9674,2.9677,2.9697,2.971,2.9715,2.9728,2.9733,2.9684,2.9685,2.9686,2.9687,0,0,2.8745,2.8889,2.89,2.8949,2.9055,2.9109,2.9171,2.9256,2.9293,2.9366,2.942,2.9518,2.9538,2.959,2.9636,2.967,2.9691,2.9687,2.969,2.9685,2.9756,2.9741,2.9745,2.9715,2.9716,2.9717,2.9749,0,2.8771,2.8886,2.8952,2.9039,2.9103,2.9163,2.9217,2.9287,2.9341,2.9402,2.946,2.9529,2.955,2.9581,2.9618,2.9681,2.9707,2.9679,2.9765,2.9767,2.9742,2.9752,2.9736,2.9763,2.9755,2.9756,2.9756,0,2.8817,2.889,2.8984,2.9083,2.9112,2.916,2.9243,2.9301,2.9381,2.9418,2.9475,2.9522,2.9588,2.9595,2.9688,2.9668,2.9706,2.9743,2.9745,2.9756,2.9762,2.9763,2.9773,2.9777,2.9765,2.9764,2.9763,0,2.8789,2.891,2.8983,2.9022,2.9139,2.9171,2.9221,2.9302,2.9349,2.9421,2.9452,2.953,2.9573,2.9633,2.9699,2.9698,2.9785,2.9797,2.9816,2.9815,2.9833,2.9831,2.9849,2.9856,2.9856,2.9856,2.9856,0,2.8811,2.8866,2.8972,2.9016,2.9079,2.9153,2.9213,2.9268,2.9339,2.9394,2.945,2.9501,2.9585,2.9646,2.9697,2.9766,2.9785,2.9816,2.9829,2.9811,2.9807,2.9838,2.9838,2.9857,2.9857,2.9857,2.9857,0,2.879,2.8863,2.8946,2.905,2.9077,2.9119,2.9208,2.9253,2.9309,2.9378,2.9399,2.9486,2.9561,2.9632,2.9731,2.9766,2.9835,2.9852,2.9808,2.9815,2.9831,2.9828,2.987,2.9879,2.9879,2.9879,2.9879,0,2.88,2.8844,2.8953,2.8995,2.9044,2.911,2.9158,2.9232,2.928,2.9375,2.9408,2.9486,2.9553,2.9669,2.9741,2.9817,2.9837,2.9846,2.9848,2.9829,2.9837,2.9834,2.9839,2.9844,2.9844,2.9843,2.9843,0,2.881,2.8844,2.8912,2.8992,2.9049,2.9115,2.9184,2.9214,2.9301,2.9352,2.9429,2.9481,2.9582,2.9659,2.9743,2.9794,2.9833,2.9841,2.985,2.9833,2.9806,2.9821,2.9803,2.984,2.9841,2.9841,2.9841,2.9841,2.8806,2.8848,2.8931,2.9004,2.9064,2.9126,2.9174,2.9236,2.9302,2.9391,2.943,2.9507,2.9586,2.9704,2.9753,2.9815,2.9824,2.9836,2.984,2.9842,2.9838,2.9795,2.983,2.983,2.983,2.9831,2.9831,0,2.8818,2.8875,2.8942,2.9037,2.9094,2.9126,2.9203,2.9249,2.9317,2.9388,2.9453,2.9541,2.9616,2.9693,2.9772,2.9806,2.9826,2.9825,2.9823,2.9834,2.9825,2.981,2.9807,2.9807,2.9807,2.9807,2.9807,2.9807,2.8832,2.8905,2.8948,2.905,2.9106,2.9184,2.9225,2.9283,2.934,2.9436,2.9499,2.9549,2.9622,2.9707,2.9777,2.9798,2.9824,2.9818,2.9843,2.9833,2.9835,2.9836,2.9823,2.9823,2.9823,2.9848,2.9848,2.9849]}]]